SCP
0 0 0 0 0 0 0 0 -0 -0 -0 0 0 0 0 0 0 0 0 0 0 0 0 0 0 0 0 0 0 0 0 0 0 0 0 0 0 0 0 0 0 0 0 0 0 0 0 0 0
0 0 0 0 0 0 0 0 -0 -0 -0 0 0 0 0 0 0 0 0 0 0 0 0 0 0 0 0 0 0 0 0 0 0 0 0 0 0 0 0 0 0 0 0 0 0 0 0 0 0
0 0 0 0 0 0 0 -0 -0 -0 0 0 0 0 0 0 0 0 0 0 0 0 0 0 0 0 0 0 0 0 0 0 0 0 0 0 0 0 0 0 0 0 0 0 0 0 0 0 0
0 0 0 0 0 0 0 0 0 0 0 0 0 0 0 0 0 0 0 0 0 0 0 0 0 0 0 0 0 0 0 0 0 0 0 0 0 0 0 0 0 0 0 0 0 0 0 0 0
0 0 0 0 0 0 0 0 0 0 0 0 0 0 0 0 0 0 0 0 0 0 0 0 0 0 0 0 0 0 0 0 0 0 0 0 0 0 0 0 0 0 0 0 0 0 0 0 0
0 0 0 0 0 0 0 0 0 0 0 0 0 0 0 0 0 0 0 0 0 0 0 0 0 0 0 0 0 0 0 0 0 0 0 0 0 0 0 0 0 0 0 0 0 0 0 0 0
0 0 0 0 0 0 0 0 0 0 0 0 0 0 0 0 0 0 0 0 0 0 0 0 0 0 0 0 0 0 0 0 0 0 0 0 0 0 0 0 0 0 0 0 0 0 0 0 0
0 0 0 0 0 0 0 0 0 0 0 0 0 0 0 0 0 0 0 0 0 0 0 0 0 0 0 0 0 0 0 0 0 0 0 0 0 0 0 0 0 0 0 0 0 0 0 0 0
0 0 0 0 0 0 0 0 0 0 0 0 0 0 0 0 0 0 0 0 0 0 0 0 0 0 0 0 0 0 0 0 0 0 0 0 0 0 0 0 0 0 0 0 0 0 0 0 0
0 0 0 0 0 0 0 0 0 0 0 0 0 0 0 0 0 0 0 0 0 0 0 0 0 0 0 0 0 0 0 0 0 0 0 0 0 0 0 0 0 0 0 0 0 0 0 0 0
0 0 0 0 0 0 0 0 0 0 0 0 0 0 0 0 0 0 0 0 0 0 0 0 0 0 0 0 0 0 0 0 0 0 0 0 0 0 0 0 0 0 0 0 0 0 0 0 0
0 0 0 0 0 0 0 0 0 0 0 0 0 0 0 0 0 0 0 0 0 0 0 0 0 0 0 0 0 0 0 0 0 0 0 0 0 0 0 0 0 0 0 0 0 0 0 0 0
0 0 0 0 0 0 0 0 0 0 0 0 0 0 0 0 0 0 0 0 0 0 0 0 0 0 0 0 0 0 0 0 0 0 0 0 0 0 0 0 0 0 0 0 0 0 0 0 0
0 0 0 0 0 0 0 0 0 0 0 0 0 0 0 0 0 0 0 0 0 0 0 0 0 0 0 0 0 0 0 0 0 0 0 0 0 0 0 0 0 0 0 0 0 0 0 0 0
0 0 0 0 0 0 0 0 0 0 0 0 0 0 0 0 0 0 0 0 0 0 0 0 0 0 0 0 0 0 0 0 0 0 0 0 0 0 0 0 0 0 0 0 0 0 0 0 0
0 0 0 0 0 0 0 0 0 0 0 0 0 0 0 0 0 0 0 0 0 0 0 0 0 0 0 0 0 0 0 0 0 0 0 0 0 0 0 0 0 0 0 0 0 0 0 0 0
0 0 0 0 0 0 0 0 0 0 0 0 0 0 0 0 0 0 0 0 0 0 0 0 0 0 0 0 0 0 0 0 0 0 0 0 0 0 0 0 0 0 0 0 0 0 0 0 0
0 0 0 0 0 0 0 0 0 0 0 0 0 0 0 0 0 0 0 0 0 0 0 0 0 0 0 0 0 0 0 0 0 0 0 0 0 0 0 0 0 0 0 0 0 0 0 0 0
0 0 0 0 0 0 0 0 0 0 0 0 0 0 0 0 0 0 0 0 0 0 0 0 0 0 0 0 0 0 0 0 0 0 0 0 0 0 0 0 0 0 0 0 0 0 0 0 0
0 0 0 0 0 0 0 0 0 0 0 0 0 0 0 0 0 0 0 0 0 0 0 0 0 0 0 0 0 0 0 0 0 0 0 0 0 0 0 0 0 0 0 0 0 0 0 0 0
0 0 0 0 0 0 0 0 0 0 0 0 0 0 0 0 0 0 0 0 0 0 0 0 0 0 0 0 0 0 0 0 0 0 0 0 0 0 0 0 0 0 0 0 0 0 0 0 0
0 0 0 0 0 0 0 0 0 0 0 0 0 0 0 0 0 0 0 0 0 0 0 0 0 0 0 0 0 0 0 0 0 0 0 0 0 0 0 0 0 0 0 0 0 0 0 0 0
0 0 0 0 0 0 0 0 0 0 0 0 0 0 0 0 0 0 0 0 0 0 0 0 0 0 0 0 0 0 0 0 0 0 0 0 0 0 0 0 0 0 0 0 0 0 0 0 0
0 0 0 0 0 0 0 0 0 0 0 0 0 0 0 0 0 0 0 0 0 0 0 0 0 0 0 0 0 0 0 0 0 0 0 0 0 0 0 0 0 0 0 0 0 0 0 0 0
0 0 0 0 0 0 0 0 0 0 0 0 0 0 0 0 0 0 0 0 0 0 0 0 0 0 0 0 0 0 0 0 0 0 0 0 0 0 0 0 0 0 0 0 0 0 0 0 0
0 0 0 0 0 0 0 0 0 0 0 0 0 0 0 0 0 0 0 0 0 0 0 0 0 0 0 0 0 0 0 0 0 0 0 0 0 0 0 0 0 0 0 0 0 0 0 0 0
0 0 0 0 0 0 0 0 0 0 0 0 0 0 0 0 0 0 0 0 0 0 0 0 0 0 0 0 0 0 0 0 0 0 0 0 0 0 0 0 0 0 0 0 0 0 0 0 0
0 0 0 0 0 0 0 0 0 0 0 0 0 0 0 0 0 0 0 0 0 0 0 0 0 0 0 0 0 0 0 0 0 0 0 0 0 0 0 0 0 0 0 0 0 0 0 0 0
0 0 0 0 0 0 0 0 0 0 0 0 0 0 0 0 0 0 0 0 0 0 0 0 0 0 0 0 0 0 0 0 0 0 0 0 0 0 0 0 0 0 0 0 0 0 0 0 0
0 0 0 0 0 0 0 0 0 0 0 0 0 0 0 0 0 0 0 0 0 0 0 0 0 0 0 0 0 0 0 0 0 0 0 0 0 0 0 0 0 0 0 0 0 0 0 0 0
Wind_Speed
4 2 3 4 6 5 2 4 3 2 2 1 3 7 7 4 4 3 2 11 10 13 13 16 19 17 16 15 14 13 13 12 11 11 11 11 10 10 10 10 10 10 10 10 11 11 11 11 10
1 2 4 5 5 2 4 3 3 4 5 3 3 5 5 2 1 5 4 10 14 15 12 12 19 18 17 15 14 13 12 12 11 11 10 10 10 10 9 9 9 9 9 9 9 10 10 9 9
2 1 4 5 3 4 3 3 5 3 4 3 3 4 4 3 2 5 5 13 13 12 10 13 20 18 17 16 15 14 12 11 11 11 10 9 9 9 8 8 8 8 8 8 8 8 9 8 8
3 4 5 4 2 5 5 5 4 3 1 2 4 4 3 1 2 4 8 13 13 11 10 13 20 19 18 16 15 14 13 11 11 10 9 9 8 8 7 7 7 7 6 7 7 7 7 7 7
4 4 4 1 4 4 4 5 5 4 2 0 3 4 2 6 2 7 10 13 13 11 9 11 20 19 18 17 16 14 13 12 11 10 9 8 8 7 6 6 5 5 5 5 5 5 5 5 5
4 5 4 1 4 3 3 2 4 4 2 2 3 4 0 3 3 7 9 10 12 13 11 11 20 19 18 17 16 15 13 12 11 10 10 9 8 7 6 5 4 3 3 3 3 3 3 3 3
4 4 2 2 2 1 2 1 4 5 3 1 4 5 1 2 4 6 8 8 9 11 10 8 10 13 16 16 16 15 13 12 11 11 10 9 8 7 6 5 4 3 2 1 0 1 1 2 3
5 4 1 2 1 1 3 1 2 4 3 1 4 7 5 6 3 5 6 7 8 8 9 8 7 8 8 9 14 14 13 12 11 10 9 8 8 7 6 6 5 5 4 3 3 3 3 3 4
4 5 0 2 0 1 3 3 4 1 4 4 3 3 4 5 5 6 5 5 6 8 7 8 8 7 7 7 10 11 12 11 10 8 9 7 4 3 3 5 7 6 6 5 5 5 5 5 5
4 3 4 2 2 2 0 1 2 3 3 2 2 2 3 5 5 6 6 8 9 10 9 8 8 8 7 6 5 5 5 5 5 4 5 4 3 3 4 6 9 9 8 7 7 8 7 5 2
3 5 4 2 2 3 2 1 1 2 1 3 4 5 4 4 4 5 6 8 9 10 10 9 9 8 7 5 4 3 3 3 4 5 5 4 3 2 3 2 4 4 5 3 5 5 3 2 3
2 4 3 3 2 3 3 1 1 2 5 4 6 6 5 5 5 6 6 6 6 9 10 10 9 8 7 6 4 4 3 3 3 4 5 4 3 3 3 3 3 3 2 3 3 3 4 4 5
2 3 3 3 3 3 3 3 2 4 4 3 5 5 5 4 4 4 4 5 6 9 9 10 9 9 8 6 4 4 4 4 4 4 4 5 4 4 3 3 3 3 3 3 4 4 5 5 5
3 3 4 5 5 3 4 3 2 7 4 4 5 5 3 2 2 1 2 4 6 8 9 8 9 9 8 6 5 4 4 4 4 3 5 6 4 4 4 4 3 4 4 4 4 5 5 4 4
1 3 7 6 5 4 3 4 6 6 6 6 5 4 4 2 2 1 1 3 6 7 8 8 9 8 8 7 6 4 4 3 3 3 4 5 4 4 4 3 3 3 3 4 3 4 3 3 3
2 2 4 7 2 3 6 7 8 4 8 7 5 4 4 3 2 2 2 3 5 7 7 7 7 7 6 6 5 3 3 3 2 2 2 3 3 3 3 2 3 3 2 2 2 2 2 3 3
2 1 4 6 2 3 5 7 6 4 8 8 7 6 5 3 3 3 3 4 6 7 8 7 7 7 6 5 4 3 3 2 2 1 1 1 1 1 1 1 2 1 1 1 2 2 2 3 4
4 4 4 4 3 4 5 8 7 5 7 9 7 6 6 5 3 2 4 5 6 6 7 7 7 6 6 5 4 3 3 2 2 2 1 1 1 1 1 0 1 1 1 1 2 2 2 3 4
4 4 6 7 5 5 8 10 10 8 6 8 8 8 7 6 3 3 4 6 6 6 7 6 6 5 5 3 3 3 2 1 1 1 1 1 1 1 0 0 1 1 1 2 2 2 3 3 2
5 5 6 6 3 3 6 11 10 9 10 13 14 12 10 7 5 4 5 4 5 5 6 6 6 5 5 4 3 2 2 1 1 1 2 2 1 1 0 0 1 1 1 2 2 1 2 2 1
6 5 5 5 4 3 4 9 7 6 5 7 10 11 10 12 11 7 6 5 5 5 5 6 6 6 5 4 4 3 3 3 2 2 2 2 2 1 1 1 1 1 1 2 3 2 2 3 2
6 6 5 3 1 5 1 6 8 4 3 7 10 10 10 10 9 8 7 6 5 5 5 6 6 6 5 5 5 4 3 2 1 0 1 3 3 2 1 1 1 1 1 2 3 2 2 2 3
7 4 2 1 2 3 3 4 10 2 6 10 11 12 11 11 12 10 9 7 6 5 5 5 6 5 4 5 5 5 3 2 1 1 2 3 3 3 2 2 1 2 2 3 4 3 3 3 3
4 3 4 4 3 4 6 7 10 6 10 9 11 12 12 12 11 10 8 7 5 5 5 5 6 5 4 5 5 5 5 3 2 1 2 2 2 2 3 2 2 2 3 4 4 4 5 4 5
4 5 2 3 1 8 4 5 12 9 8 11 17 17 14 12 12 12 11 9 8 7 6 6 6 5 4 5 4 4 4 3 3 1 0 1 2 2 3 3 3 3 3 4 4 4 5 5 5
6 9 7 6 5 6 3 8 10 5 5 6 10 13 13 12 12 13 13 11 9 8 7 7 7 5 5 5 4 3 3 2 1 1 1 1 1 2 3 3 4 4 5 5 4 4 5 5 5
7 6 7 4 2 4 7 7 8 2 2 4 9 12 14 14 14 13 12 11 10 9 8 8 7 6 5 5 4 3 3 2 1 1 1 1 2 2 3 4 4 5 5 5 5 4 5 5 5
7 7 5 5 5 5 7 6 6 5 4 5 9 13 14 13 12 12 12 11 10 9 7 7 7 7 5 5 4 3 2 2 1 1 1 2 3 3 4 4 5 5 6 6 5 5 6 6 6
6 5 5 5 5 5 4 8 6 6 7 9 11 13 15 15 15 13 12 11 9 8 8 7 7 6 5 5 3 3 2 1 1 1 2 3 3 3 4 5 5 6 6 6 6 6 7 7 7
7 8 8 6 6 5 4 9 5 4 5 7 9 10 11 13 12 11 11 10 9 9 8 8 7 6 5 5 4 3 2 1 1 2 3 3 4 4 5 5 6 6 7 7 7 8 8 8 9
Wind_Direction
327 11 67 56 57 52 274 257 195 155 117 201 119 107 117 128 149 173 195 147 148 153 167 167 165 161 158 153 145 140 135 128 123 118 113 109 105 99 93 88 84 80 76 72 70 67 65 63 63
10 37 59 62 84 84 273 250 158 157 169 155 94 99 101 100 169 145 141 159 151 156 163 163 166 163 160 156 151 146 140 135 131 126 121 116 110 104 98 92 87 82 78 75 71 70 67 66 65
1 74 83 76 113 182 214 211 181 187 171 130 90 82 118 154 184 181 179 151 147 156 159 166 166 165 163 159 157 153 148 144 138 133 128 122 116 109 103 97 91 86 82 78 73 70 68 66 64
54 50 58 79 220 227 201 207 185 136 71 89 105 76 74 335 222 193 141 144 147 155 158 168 168 168 166 163 161 157 155 153 145 139 136 131 124 117 110 105 100 93 86 80 76 70 66 64 61
62 73 66 35 251 249 219 196 159 121 127 63 106 103 41 333 41 124 138 148 152 156 161 170 170 171 168 167 164 162 161 160 156 151 146 142 136 128 125 120 114 105 95 84 77 70 66 58 55
56 66 85 251 263 264 258 213 122 99 86 46 99 107 205 314 121 144 149 154 157 159 163 170 173 173 171 170 169 167 167 166 164 162 159 155 150 145 146 142 137 128 113 94 76 61 52 45 34
99 93 161 242 267 270 247 178 118 118 98 119 122 119 225 271 196 159 150 150 153 159 162 169 172 173 175 174 174 173 173 172 172 172 170 166 165 165 166 166 168 170 166 157 124 14 359 353 349
124 100 24 300 272 293 310 74 113 124 143 106 106 143 199 221 185 128 119 137 147 157 163 165 166 167 170 173 176 177 178 178 179 178 173 174 179 184 185 182 193 202 210 223 242 265 284 296 304
91 78 284 274 360 309 338 38 352 65 79 43 46 160 203 144 123 113 105 118 146 161 167 166 164 165 163 167 179 177 181 183 184 183 178 177 176 182 195 195 212 222 228 238 252 265 276 281 286
91 133 228 239 194 190 1 43 338 49 53 65 54 45 84 113 136 150 156 162 167 174 178 174 169 166 164 173 171 171 176 179 176 170 175 170 176 193 198 210 221 230 237 248 261 270 279 286 284
158 194 232 264 212 175 161 313 334 127 213 198 176 170 155 152 167 185 191 183 183 177 177 178 174 168 168 168 163 166 167 169 176 182 182 181 182 200 204 207 230 238 243 251 273 289 286 266 250
213 243 233 239 217 179 180 195 286 193 216 200 173 164 163 173 190 201 203 200 186 173 180 177 174 171 172 167 168 170 172 176 184 192 188 180 183 196 202 205 212 216 224 232 244 250 255 257 255
239 270 289 263 236 214 194 213 229 239 214 166 137 131 149 167 198 215 206 195 174 173 175 175 174 172 170 167 173 176 182 187 191 191 193 188 190 199 203 209 209 215 218 222 231 238 244 248 251
235 259 290 276 254 234 212 244 220 251 194 150 133 135 135 144 180 200 198 177 172 167 166 165 168 168 163 164 168 174 181 186 188 196 201 194 194 198 201 213 216 221 221 222 223 230 236 242 246
271 316 314 284 237 228 167 268 240 234 153 147 144 136 113 91 79 90 183 166 161 156 151 154 160 157 157 159 165 166 174 174 184 200 202 196 195 200 202 210 221 230 230 233 237 244 244 252 254
13 6 302 293 214 175 148 252 265 208 154 162 163 146 122 91 62 44 88 119 133 133 133 142 147 145 149 151 153 149 150 155 174 188 190 200 199 198 199 213 231 239 237 239 248 253 259 263 266
9 261 261 296 223 169 180 240 263 180 161 171 176 163 143 116 72 50 72 104 119 125 124 121 125 134 135 131 122 114 110 112 120 125 129 153 163 168 174 213 241 245 245 259 265 264 256 271 276
233 234 252 271 266 183 216 246 258 225 184 182 180 170 157 142 134 101 88 97 103 107 109 110 111 117 116 105 95 84 78 75 73 82 90 89 78 90 119 212 265 273 279 289 289 283 277 265 273
214 232 262 261 253 205 230 249 253 235 201 186 184 178 168 159 146 109 97 99 99 98 104 109 113 115 115 105 106 104 96 66 48 37 41 44 30 23 75 284 302 310 283 279 284 285 290 288 290
225 247 266 284 288 219 252 263 257 228 205 192 184 180 172 159 147 130 115 107 110 116 114 114 118 119 117 118 121 123 121 104 76 11 10 4 357 346 332 249 283 302 301 307 304 293 293 287 282
227 224 238 257 307 311 296 293 274 253 206 185 182 178 172 165 160 154 139 129 125 130 135 129 125 119 115 114 102 81 63 44 27 8 349 337 342 338 332 292 264 283 257 281 285 273 257 279 288
237 228 218 239 259 282 254 286 283 253 203 189 184 180 179 169 159 157 152 149 149 150 139 129 125 119 117 115 115 121 124 132 198 293 332 341 355 349 339 322 295 289 282 280 278 266 246 246 276
214 207 196 212 200 279 249 235 278 232 223 215 195 188 184 174 166 163 162 158 154 149 142 134 124 118 118 115 122 121 121 134 115 46 22 2 351 353 347 338 332 313 295 284 284 285 269 244 249
162 83 42 46 81 269 224 195 271 226 216 205 194 191 184 175 167 160 156 148 146 147 141 138 130 125 124 121 123 129 132 130 107 62 20 352 340 340 344 337 330 310 298 290 285 280 276 266 261
124 106 4 322 311 250 214 200 250 246 222 196 188 187 183 175 167 163 162 164 162 161 158 152 143 139 136 129 129 137 140 138 137 148 218 332 329 322 318 327 319 308 298 293 290 287 282 275 269
178 159 178 212 230 273 230 223 252 266 261 202 179 174 173 176 175 174 173 171 169 169 166 160 156 153 151 143 143 141 139 136 150 176 199 259 270 280 295 311 309 305 303 302 298 289 281 279 273
158 195 182 156 255 271 273 276 297 283 30 137 152 163 179 183 182 179 176 174 173 172 172 168 163 159 160 155 146 141 140 141 163 214 243 275 281 287 306 312 310 307 304 300 299 287 286 285 276
160 164 135 158 198 242 274 268 257 259 224 175 174 182 186 184 184 182 179 178 177 173 169 165 163 164 163 159 157 153 160 171 188 221 291 296 298 303 312 311 308 304 302 300 297 290 285 284 279
163 174 175 176 184 182 251 268 235 239 213 197 198 193 188 187 187 185 183 179 172 165 164 164 165 159 161 162 159 153 174 193 205 265 280 285 288 296 298 298 300 300 298 296 293 288 287 283 281
182 187 167 177 222 197 201 267 276 271 226 199 200 198 193 191 187 182 176 170 170 170 169 168 167 165 168 165 160 170 189 212 259 276 279 280 282 285 287 291 293 292 292 290 288 287 289 283 283